Lincoln, NE

7:05 AM CST on November 19, 2017 (GMT -0600)
Lincoln Municipal

Weather History for KLNK - June, 2012

Change the Weather History Date:

Thursday, June 7, 2012

  Actual Average Record
Temperature  
Mean Temperature 75 °F 70 °F  
Max Temperature 87 °F 82 °F 100 °F (1963)
Min Temperature 62 °F 58 °F 41 °F (1935)
Degree Days  
Heating Degree Days 0 1  
Month to date heating degree days 11 8  
Since 1 June heating degree days 11 8  
Since 1 July heating degree days 5094 6048  
Cooling Degree Days 10 6  
Month to date cooling degree days 49 36  
Year to date cooling degree days 240 115  
Since 1 June cooling degree days 49 36  
Growing Degree Days 24 (Base 50)    
Moisture  
Dew Point 54 °F    
Average Humidity 52    
Maximum Humidity 73    
Minimum Humidity 31    
Precipitation  
Precipitation 0.00 in 0.13 in 3.30 in (1967)
Month to date precipitation T 0.99  
Year to date precipitation 9.64 11.33  
Snow  
Snow 0.00 in 0.00 in - ()
Month to date snowfall 0.0 0.0  
Since 1 July snowfall 18.8 25.9  
Snow Depth 0.00 in    
Sea Level Pressure  
Sea Level Pressure 30.03 in    
Wind  
Wind Speed 9 mph (SSE)    
Max Wind Speed 17 mph    
Max Gust Speed 23 mph    
Visibility 10 miles    
Events      
T = Trace of Precipitation, MM = Missing Value Source: NWS Daily Summary

Daily Weather History Graph

Daily Weather History Graph

Search for Another Location

Airport or City:

Trip Planner

Search our weather history database for the weather conditions in past years. The results will help you decide how hot, cold, wet, or windy it might be!

Date:

Astronomy

Jun. 07, 2012 Rise Set
Actual Time 5:55 AM CDT 8:56 PM CDT
Civil Twilight 5:22 AM CDT 9:30 PM CDT
Nautical Twilight 4:40 AM CDT 10:12 PM CDT
Astronomical Twilight 3:50 AM CDT 11:01 PM CDT
Moon 11:46 PM CDT (6/7) 9:29 AM CDT (6/7)
Length of Visible Light 16h 07m
Length of Day
15h 01m
Waning Gibbous, 86% of the Moon is Illuminated
Jun 7
Waning Gibbous
Jun 11
Last Quarter
Jun 19
New
Jun 26
First Quarter
Jul 3
Full

Hourly Weather History & Observations

Time (CDT) Temp. Heat Index Dew Point Humidity Pressure Visibility Wind Dir Wind Speed Gust Speed Precip Events Conditions
12:54 AM 72.0 °F - 55.0 °F 55% 30.01 in 10.0 mi SSE 11.5 mph - N/A   Clear
1:54 AM 69.8 °F - 55.4 °F 60% 30.05 in 10.0 mi SSE 11.5 mph - N/A   Clear
2:54 AM 68.0 °F - 55.0 °F 63% 30.02 in 10.0 mi SSE 9.2 mph - N/A   Clear
3:54 AM 64.9 °F - 54.0 °F 68% 30.02 in 10.0 mi SSE 6.9 mph - N/A   Clear
4:54 AM 62.1 °F - 54.0 °F 75% 30.03 in 10.0 mi South 6.9 mph - N/A   Clear
5:54 AM 64.0 °F - 54.0 °F 70% 30.05 in 10.0 mi Calm Calm - N/A   Clear
6:54 AM 64.0 °F - 55.0 °F 73% 30.05 in 10.0 mi Calm Calm - N/A   Clear
7:54 AM 68.0 °F - 55.0 °F 63% 30.07 in 10.0 mi SE 4.6 mph - N/A   Clear
8:54 AM 70.0 °F - 55.0 °F 59% 30.09 in 10.0 mi South 5.8 mph - N/A   Clear
9:54 AM 75.9 °F - 55.9 °F 50% 30.07 in 10.0 mi SSE 10.4 mph - N/A   Clear
10:54 AM 79.0 °F - 55.0 °F 44% 30.07 in 10.0 mi South 9.2 mph - N/A   Clear
11:54 AM 80.1 °F 80.2 °F 55.9 °F 43% 30.07 in 10.0 mi SSW 4.6 mph - N/A   Clear
12:54 PM 82.0 °F 81.7 °F 57.0 °F 42% 30.06 in 10.0 mi SSE 8.1 mph - N/A   Clear
1:54 PM 84.0 °F 82.9 °F 55.0 °F 37% 30.04 in 10.0 mi SE 5.8 mph 20.7 mph N/A   Clear
2:54 PM 86.0 °F 84.2 °F 54.0 °F 33% 30.02 in 10.0 mi SE 12.7 mph - N/A   Clear
3:54 PM 87.1 °F 85.1 °F 54.0 °F 32% 30.01 in 10.0 mi South 15.0 mph 19.6 mph N/A   Partly Cloudy
4:54 PM 86.0 °F 84.0 °F 53.1 °F 32% 30.01 in 10.0 mi SE 12.7 mph - N/A   Partly Cloudy
5:54 PM 84.9 °F 83.3 °F 54.0 °F 34% 30.00 in 10.0 mi SSE 12.7 mph 20.7 mph N/A   Scattered Clouds
6:54 PM 82.9 °F 81.8 °F 53.1 °F 36% 29.99 in 10.0 mi SE 12.7 mph - N/A   Clear
7:54 PM 82.0 °F 81.2 °F 53.1 °F 37% 29.98 in 10.0 mi SE 13.8 mph - N/A   Clear
8:54 PM 79.0 °F - 52.0 °F 39% 29.98 in 10.0 mi SE 10.4 mph - N/A   Clear
9:54 PM 77.0 °F - 52.0 °F 42% 29.99 in 10.0 mi SE 11.5 mph - N/A   Clear
10:54 PM 75.0 °F - 52.0 °F 44% 30.00 in 10.0 mi SE 15.0 mph - N/A   Clear
11:54 PM 72.0 °F - 51.1 °F 48% 30.02 in 10.0 mi SSE 10.4 mph - N/A   Clear